Time,TemperatureF,DewpointF,PressureIn,WindDirection,WindDirectionDegrees,WindSpeedMPH,WindSpeedGustMPH,Humidity,HourlyPrecipIn,Conditions,Clouds,dailyrainin,SoftwareType,DateUTC
2013-03-31 00:01:00,33.4,30.0,29.88,West,267,5.0,-999.0,87,-99.99,,,0.13,weatherlink.com 1.10,2013-03-31 05:01:00,
2013-03-31 00:16:00,33.2,30.0,29.88,West,263,2.0,-999.0,87,-99.99,,,0.00,weatherlink.com 1.10,2013-03-31 05:16:00,
2013-03-31 00:30:00,33.0,30.0,29.87,WSW,258,5.0,-999.0,87,-99.99,,,0.00,weatherlink.com 1.10,2013-03-31 05:30:00,
2013-03-31 00:44:00,33.0,30.0,29.87,WSW,256,4.0,-999.0,87,-99.99,,,0.00,weatherlink.com 1.10,2013-03-31 05:44:00,
2013-03-31 00:59:00,32.8,29.0,29.87,WNW,283,4.0,-999.0,87,-99.99,,,0.00,weatherlink.com 1.10,2013-03-31 05:59:00,
2013-03-31 01:13:00,32.8,29.0,29.87,WNW,283,3.0,-999.0,87,-99.99,,,0.00,weatherlink.com 1.10,2013-03-31 06:13:00,
2013-03-31 01:27:00,33.2,30.0,29.87,WNW,290,3.0,-999.0,88,-99.99,,,0.00,weatherlink.com 1.10,2013-03-31 06:27:00,
2013-03-31 01:41:00,33.5,30.0,29.87,WSW,237,6.0,-999.0,87,-99.99,,,0.00,weatherlink.com 1.10,2013-03-31 06:41:00,
2013-03-31 01:56:00,33.5,30.0,29.86,West,270,2.0,-999.0,87,-99.99,,,0.00,weatherlink.com 1.10,2013-03-31 06:56:00,
2013-03-31 02:10:00,33.5,30.0,29.86,West,281,7.0,-999.0,87,-99.99,,,0.00,weatherlink.com 1.10,2013-03-31 07:10:00,
2013-03-31 02:24:00,33.2,30.0,29.86,WNW,289,6.0,-999.0,87,-99.99,,,0.00,weatherlink.com 1.10,2013-03-31 07:24:00,
2013-03-31 02:39:00,32.9,29.0,29.86,WSW,244,0.0,-999.0,87,-99.99,,,0.00,weatherlink.com 1.10,2013-03-31 07:39:00,
2013-03-31 02:53:00,32.7,30.0,29.86,WSW,254,4.0,-999.0,88,-99.99,,,0.00,weatherlink.com 1.10,2013-03-31 07:53:00,
2013-03-31 03:07:00,32.7,30.0,29.85,WSW,248,2.0,-999.0,88,-99.99,,,0.00,weatherlink.com 1.10,2013-03-31 08:07:00,
2013-03-31 03:36:00,33.0,30.0,29.84,SSW,197,2.0,-999.0,89,-99.99,,,0.00,weatherlink.com 1.10,2013-03-31 08:36:00,
2013-03-31 03:50:00,33.2,30.0,29.84,WSW,239,7.0,-999.0,89,-99.99,,,0.00,weatherlink.com 1.10,2013-03-31 08:50:00,
2013-03-31 04:04:00,33.3,31.0,29.84,West,259,5.0,-999.0,90,-99.99,,,0.00,weatherlink.com 1.10,2013-03-31 09:04:00,
2013-03-31 04:19:00,33.3,31.0,29.84,West,266,5.0,-999.0,90,-99.99,,,0.00,weatherlink.com 1.10,2013-03-31 09:19:00,
2013-03-31 04:33:00,33.2,31.0,29.84,WNW,292,6.0,-999.0,90,-99.99,,,0.00,weatherlink.com 1.10,2013-03-31 09:33:00,
2013-03-31 04:47:00,33.1,30.0,29.83,West,262,5.0,-999.0,90,-99.99,,,0.00,weatherlink.com 1.10,2013-03-31 09:47:00,
2013-03-31 05:02:00,33.1,30.0,29.83,WSW,256,8.0,-999.0,90,-99.99,,,0.00,weatherlink.com 1.10,2013-03-31 10:02:00,
2013-03-31 05:16:00,33.1,30.0,29.83,WNW,285,7.0,-999.0,90,-99.99,,,0.00,weatherlink.com 1.10,2013-03-31 10:16:00,
2013-03-31 05:30:00,33.2,31.0,29.82,NW,312,5.0,-999.0,90,-99.99,,,0.00,weatherlink.com 1.10,2013-03-31 10:30:00,
2013-03-31 05:44:00,33.1,30.0,29.82,West,270,6.0,-999.0,90,-99.99,,,0.00,weatherlink.com 1.10,2013-03-31 10:44:00,
2013-03-31 05:59:00,32.9,30.0,29.82,SW,226,3.0,-999.0,89,-99.99,,,0.00,weatherlink.com 1.10,2013-03-31 10:59:00,
2013-03-31 06:13:00,32.6,30.0,29.82,West,278,4.0,-999.0,89,-99.99,,,0.00,weatherlink.com 1.10,2013-03-31 11:13:00,
2013-03-31 06:28:00,32.6,30.0,29.82,SW,235,1.0,-999.0,89,-99.99,,,0.00,weatherlink.com 1.10,2013-03-31 11:28:00,
2013-03-31 06:42:00,32.7,30.0,29.82,West,268,3.0,-999.0,89,-99.99,,,0.00,weatherlink.com 1.10,2013-03-31 11:42:00,
2013-03-31 06:56:00,32.8,30.0,29.82,West,263,1.0,-999.0,89,-99.99,,,0.00,weatherlink.com 1.10,2013-03-31 11:56:00,
2013-03-31 07:11:00,33.0,30.0,29.82,WSW,257,2.0,-999.0,89,-99.99,,,0.00,weatherlink.com 1.10,2013-03-31 12:11:00,
2013-03-31 07:25:00,33.1,30.0,29.82,WSW,250,4.0,-999.0,89,-99.99,,,0.00,weatherlink.com 1.10,2013-03-31 12:25:00,
2013-03-31 07:39:00,33.2,30.0,29.82,WSW,256,3.0,-999.0,89,-99.99,,,0.00,weatherlink.com 1.10,2013-03-31 12:39:00,
2013-03-31 07:53:00,33.7,31.0,29.82,West,268,7.0,-999.0,88,-99.99,,,0.00,weatherlink.com 1.10,2013-03-31 12:53:00,
2013-03-31 08:08:00,34.1,30.0,29.82,NW,315,6.0,-999.0,86,-99.99,,,0.00,weatherlink.com 1.10,2013-03-31 13:08:00,
2013-03-31 08:22:00,34.2,30.0,29.82,West,259,13.0,-999.0,85,-99.99,,,0.00,weatherlink.com 1.10,2013-03-31 13:22:00,
2013-03-31 08:50:00,34.1,30.0,29.83,West,281,10.0,-999.0,84,-99.99,,,0.00,weatherlink.com 1.10,2013-03-31 13:50:00,
2013-03-31 09:05:00,34.2,30.0,29.83,WNW,291,6.0,-999.0,84,-99.99,,,0.00,weatherlink.com 1.10,2013-03-31 14:05:00,
2013-03-31 09:19:00,34.4,30.0,29.83,WNW,294,10.0,-999.0,83,-99.99,,,0.00,weatherlink.com 1.10,2013-03-31 14:19:00,
2013-03-31 09:33:00,34.7,30.0,29.84,West,275,5.0,-999.0,83,-99.99,,,0.00,weatherlink.com 1.10,2013-03-31 14:33:00,
2013-03-31 09:47:00,35.0,30.0,29.84,West,268,8.0,-999.0,82,-99.99,,,0.00,weatherlink.com 1.10,2013-03-31 14:47:00,
2013-03-31 10:02:00,35.3,30.0,29.84,WNW,282,11.0,-999.0,82,-99.99,,,0.00,weatherlink.com 1.10,2013-03-31 15:02:00,
2013-03-31 10:16:00,35.6,30.0,29.85,West,274,6.0,-999.0,80,-99.99,,,0.00,weatherlink.com 1.10,2013-03-31 15:16:00,
2013-03-31 10:30:00,35.8,30.0,29.85,WNW,297,18.0,-999.0,80,-99.99,,,0.00,weatherlink.com 1.10,2013-03-31 15:30:00,
2013-03-31 10:44:00,36.1,30.0,29.85,NW,311,9.0,-999.0,79,-99.99,,,0.00,weatherlink.com 1.10,2013-03-31 15:44:00,
2013-03-31 10:59:00,36.9,29.0,29.86,NW,310,12.0,-999.0,73,-99.99,,,0.00,weatherlink.com 1.10,2013-03-31 15:59:00,
2013-03-31 11:13:00,37.2,29.0,29.86,WNW,299,17.0,-999.0,71,-99.99,,,0.00,weatherlink.com 1.10,2013-03-31 16:13:00,
2013-03-31 11:27:00,37.4,29.0,29.86,West,273,12.0,-999.0,70,-99.99,,,0.00,weatherlink.com 1.10,2013-03-31 16:27:00,
2013-03-31 11:42:00,37.5,28.0,29.87,WNW,300,7.0,-999.0,68,-99.99,,,0.00,weatherlink.com 1.10,2013-03-31 16:42:00,
2013-03-31 11:56:00,37.9,26.0,29.88,West,270,17.0,-999.0,61,-99.99,,,0.00,weatherlink.com 1.10,2013-03-31 16:56:00,
2013-03-31 12:11:00,37.9,24.0,29.88,NW,308,15.0,-999.0,56,-99.99,,,0.00,weatherlink.com 1.10,2013-03-31 17:11:00,
2013-03-31 12:25:00,37.4,23.0,29.89,NW,314,10.0,-999.0,55,-99.99,,,0.00,weatherlink.com 1.10,2013-03-31 17:25:00,
2013-03-31 12:39:00,36.9,23.0,29.89,WNW,297,13.0,-999.0,57,-99.99,,,0.00,weatherlink.com 1.10,2013-03-31 17:39:00,
2013-03-31 12:53:00,37.3,23.0,29.89,NNW,329,10.0,-999.0,55,-99.99,,,0.00,weatherlink.com 1.10,2013-03-31 17:53:00,
2013-03-31 13:08:00,37.4,24.0,29.90,WNW,287,16.0,-999.0,57,-99.99,,,0.00,weatherlink.com 1.10,2013-03-31 18:08:00,
2013-03-31 13:22:00,37.0,23.0,29.91,WNW,302,11.0,-999.0,56,-99.99,,,0.00,weatherlink.com 1.10,2013-03-31 18:22:00,
2013-03-31 13:36:00,37.2,24.0,29.91,WNW,299,11.0,-999.0,58,-99.99,,,0.00,weatherlink.com 1.10,2013-03-31 18:36:00,
2013-03-31 13:50:00,36.9,23.0,29.92,NNW,341,19.0,-999.0,57,-99.99,,,0.00,weatherlink.com 1.10,2013-03-31 18:50:00,
2013-03-31 14:05:00,36.2,23.0,29.93,NW,312,5.0,-999.0,59,-99.99,,,0.00,weatherlink.com 1.10,2013-03-31 19:05:00,
2013-03-31 14:19:00,36.7,21.0,29.92,NW,304,9.0,-999.0,53,-99.99,,,0.00,weatherlink.com 1.10,2013-03-31 19:19:00,
2013-03-31 14:33:00,36.1,21.0,29.93,WNW,293,19.0,-999.0,54,-99.99,,,0.00,weatherlink.com 1.10,2013-03-31 19:33:00,
2013-03-31 14:47:00,35.5,20.0,29.93,WNW,297,16.0,-999.0,52,-99.99,,,0.00,weatherlink.com 1.10,2013-03-31 19:47:00,
2013-03-31 15:02:00,35.3,20.0,29.94,WNW,295,12.0,-999.0,54,-99.99,,,0.00,weatherlink.com 1.10,2013-03-31 20:02:00,
2013-03-31 15:16:00,35.9,20.0,29.94,WNW,301,13.0,-999.0,53,-99.99,,,0.00,weatherlink.com 1.10,2013-03-31 20:16:00,
2013-03-31 15:30:00,35.5,20.0,29.94,WNW,283,18.0,-999.0,53,-99.99,,,0.00,weatherlink.com 1.10,2013-03-31 20:30:00,
2013-03-31 15:44:00,35.2,19.0,29.94,West,281,14.0,-999.0,52,-99.99,,,0.00,weatherlink.com 1.10,2013-03-31 20:44:00,
2013-03-31 15:59:00,35.0,20.0,29.94,WNW,301,13.0,-999.0,53,-99.99,,,0.00,weatherlink.com 1.10,2013-03-31 20:59:00,
2013-03-31 16:13:00,34.7,20.0,29.95,WNW,297,10.0,-999.0,54,-99.99,,,0.00,weatherlink.com 1.10,2013-03-31 21:13:00,
2013-03-31 16:27:00,34.6,19.0,29.95,NW,310,14.0,-999.0,53,-99.99,,,0.00,weatherlink.com 1.10,2013-03-31 21:27:00,
2013-03-31 16:41:00,34.4,19.0,29.96,WNW,294,10.0,-999.0,53,-99.99,,,0.00,weatherlink.com 1.10,2013-03-31 21:41:00,
2013-03-31 16:55:00,34.4,18.0,29.96,WNW,291,13.0,-999.0,51,-99.99,,,0.00,weatherlink.com 1.10,2013-03-31 21:55:00,
2013-03-31 17:10:00,34.0,18.0,29.96,NW,324,9.0,-999.0,52,-99.99,,,0.00,weatherlink.com 1.10,2013-03-31 22:10:00,
2013-03-31 17:24:00,33.4,19.0,29.97,WNW,289,10.0,-999.0,54,-99.99,,,0.00,weatherlink.com 1.10,2013-03-31 22:24:00,
2013-03-31 17:38:00,33.5,18.0,29.97,NNW,327,11.0,-999.0,53,-99.99,,,0.00,weatherlink.com 1.10,2013-03-31 22:38:00,
2013-03-31 17:53:00,33.4,19.0,29.98,NW,304,8.0,-999.0,55,-99.99,,,0.00,weatherlink.com 1.10,2013-03-31 22:53:00,
2013-03-31 18:07:00,33.1,19.0,29.98,WSW,257,13.0,-999.0,55,-99.99,,,0.00,weatherlink.com 1.10,2013-03-31 23:07:00,
2013-03-31 18:21:00,32.5,19.0,29.99,NW,318,10.0,-999.0,56,-99.99,,,0.00,weatherlink.com 1.10,2013-03-31 23:21:00,
2013-03-31 18:36:00,32.3,17.0,30.00,WNW,297,12.0,-999.0,54,-99.99,,,0.00,weatherlink.com 1.10,2013-03-31 23:36:00,
2013-03-31 18:50:00,31.7,18.0,30.00,WNW,287,9.0,-999.0,57,-99.99,,,0.00,weatherlink.com 1.10,2013-03-31 23:50:00,
2013-03-31 19:04:00,31.3,18.0,30.01,West,259,14.0,-999.0,58,-99.99,,,0.00,weatherlink.com 1.10,2013-04-01 00:04:00,
2013-03-31 19:19:00,30.8,19.0,30.02,WNW,297,10.0,-999.0,60,-99.99,,,0.00,weatherlink.com 1.10,2013-04-01 00:19:00,
2013-03-31 19:33:00,30.4,19.0,30.02,West,277,12.0,-999.0,61,-99.99,,,0.00,weatherlink.com 1.10,2013-04-01 00:33:00,
2013-03-31 19:47:00,29.7,18.0,30.02,NW,311,10.0,-999.0,62,-99.99,,,0.00,weatherlink.com 1.10,2013-04-01 00:47:00,
2013-03-31 20:02:00,29.1,18.0,30.03,West,275,12.0,-999.0,63,-99.99,,,0.00,weatherlink.com 1.10,2013-04-01 01:02:00,
2013-03-31 20:16:00,28.6,18.0,30.04,WNW,287,11.0,-999.0,64,-99.99,,,0.00,weatherlink.com 1.10,2013-04-01 01:16:00,
2013-03-31 20:30:00,28.3,18.0,30.05,WNW,293,11.0,-999.0,64,-99.99,,,0.00,weatherlink.com 1.10,2013-04-01 01:30:00,
2013-03-31 20:44:00,28.1,17.0,30.06,WNW,282,10.0,-999.0,62,-99.99,,,0.00,weatherlink.com 1.10,2013-04-01 01:44:00,
2013-03-31 20:59:00,27.4,16.0,30.07,West,279,12.0,-999.0,63,-99.99,,,0.00,weatherlink.com 1.10,2013-04-01 01:59:00,
2013-03-31 21:13:00,27.0,16.0,30.08,NW,319,6.0,-999.0,64,-99.99,,,0.00,weatherlink.com 1.10,2013-04-01 02:13:00,
2013-03-31 21:27:00,26.4,15.0,30.09,WNW,297,13.0,-999.0,63,-99.99,,,0.00,weatherlink.com 1.10,2013-04-01 02:27:00,
2013-03-31 21:42:00,26.0,15.0,30.09,West,281,10.0,-999.0,63,-99.99,,,0.00,weatherlink.com 1.10,2013-04-01 02:42:00,
2013-03-31 21:56:00,25.5,15.0,30.10,West,281,11.0,-999.0,64,-99.99,,,0.00,weatherlink.com 1.10,2013-04-01 02:56:00,
2013-03-31 22:10:00,25.3,16.0,30.10,WNW,295,13.0,-999.0,66,-99.99,,,0.00,weatherlink.com 1.10,2013-04-01 03:10:00,
2013-03-31 22:24:00,24.8,15.0,30.11,West,266,9.0,-999.0,66,-99.99,,,0.00,weatherlink.com 1.10,2013-04-01 03:24:00,
2013-03-31 22:39:00,24.4,15.0,30.11,West,278,10.0,-999.0,66,-99.99,,,0.00,weatherlink.com 1.10,2013-04-01 03:39:00,
2013-03-31 22:53:00,24.0,14.0,30.12,NW,316,11.0,-999.0,66,-99.99,,,0.00,weatherlink.com 1.10,2013-04-01 03:53:00,
2013-03-31 23:07:00,23.7,14.0,30.12,NW,317,9.0,-999.0,67,-99.99,,,0.00,weatherlink.com 1.10,2013-04-01 04:07:00,
2013-03-31 23:21:00,23.4,14.0,30.13,WNW,293,13.0,-999.0,67,-99.99,,,0.00,weatherlink.com 1.10,2013-04-01 04:21:00,
2013-03-31 23:36:00,23.0,14.0,30.13,WNW,303,6.0,-999.0,67,-99.99,,,0.00,weatherlink.com 1.10,2013-04-01 04:36:00,
2013-03-31 23:50:00,22.8,13.0,30.13,WNW,294,8.0,-999.0,67,-99.99,,,0.00,weatherlink.com 1.10,2013-04-01 04:50:00,